{"data":{"norad_id":63594,"intl_designator":"2025-076AB","name":"STARLINK-33791","alt_names":[],"object_type":"PAYLOAD","status":"ACTIVE","operator":null,"country":"US","launch_date":"2025-04-14","launch_site_code":"AFETR","launch_vehicle":null,"mission":null,"orbit_class":"UNKNOWN","rcs_meters":null,"size_class":null,"mass_kg":null,"dimensions":null,"purposes":["comms"],"wikipedia_slug":null,"has_3d_model":false,"image_url":null,"decayed_at":null,"tle_current":{"epoch":"2026-05-24T16:55:11.980992Z","epoch_age_seconds":100543,"freshness":"FRESH","line1":"1 63594U 25076AB  26144.70499978  .00024251  00000+0  88740-3 0  9990","line2":"2 63594  43.0004 252.5975 0001886 267.8631  92.2004 15.27597216 63451","mean_motion":15.27597216,"eccentricity":0.0001886,"inclination_deg":43.0004,"raan_deg":252.5975,"arg_perigee_deg":267.8631,"mean_anomaly_deg":92.2004,"bstar":0.0008874,"rev_number":6345,"period_min":94.265686328666,"perigee_km":481.70353565107,"apogee_km":484.29155560168,"semimajor_km":6861.1345456264,"source":"CELESTRAK","updated_at":"2026-05-25T13:38:20.051260Z"}}}